Preview of NWS' New Version of Forecast
This preview is not operational and should not be used for support decisions.

Regional Weather Roundup (RWR)

Issued by National Weather Service (NWS)

                            
000
ASUS43 KLSX 231907
RWRMO 

WEATHER SUMMARY FOR MISSOURI
NATIONAL WEATHER SERVICE SPRINGFIELD MO
200 PM CDT TUE APR 23 2019

NOTE: "FAIR" INDICATES FEW OR NO CLOUDS BELOW 12,000 FEET WITH NO
       SIGNIFICANT WEATHER AND/OR OBSTRUCTIONS TO VISIBILITY.
       CURRENT SKY AND/OR WEATHER CONDITIONS ARE NOT AVAILABLE FOR
       CHILLICOTHE AND FARMINGTON.

MOZ001>031-035>038-043-044-053-054-232000-
...NORTHERN AND WESTERN MISSOURI...
  
CITY           SKY/WX    TMP DP  RH WIND       PRES   REMARKS
KANSAS CTY INT CLOUDY    54  45  71 E5        30.09F                  
KANSAS C DTWN  CLOUDY    54  45  71 NW5       30.08F                  
LEE'S SUMMIT   CLOUDY    53  46  77 CALM      30.09F                  
ST JOSEPH      CLOUDY    55  47  74 N5        30.09F                  
CHILLICOTHE      N/A     56  46  69 N7        30.09F                  
KIRKSVILLE     CLOUDY    54  47  77 N7        30.09F                  
     
$$
MOZ066>068-077>081-088>096-101>105-232000-
...SOUTHWEST MISSOURI...
  
CITY           SKY/WX    TMP DP  RH WIND       PRES   REMARKS
SPRINGFIELD    CLOUDY    68  60  75 N7        30.03F                  
JOPLIN         PTSUNNY   61  55  81 NE6       30.04F                  
BRANSON        PTSUNNY   75  57  53 CALM      30.01F                  
               
$$
MOZ032>034-039>042-045>050-055>058-069>072-232000-
...CENTRAL MISSOURI...  
  
CITY           SKY/WX    TMP DP  RH WIND       PRES   REMARKS
COLUMBIA       CLOUDY    59  50  72 N6        30.06F                  
JEFFERSON CITY CLOUDY    62  50  64 N5        30.05F                  
ROLLA          CLOUDY    64  53  67 CALM      30.05F                  
SEDALIA        CLOUDY    55  52  89 N5        30.08S                  
WHITEMAN AFB   CLOUDY    56  50  81 NW5       30.05S                  
WARRENSBURG    CLOUDY    54  46  76 CALM      30.09S                  
OSAGE BEACH    CLOUDY    63  53  70 NE5       30.05F                  
               
$$
MOZ051-052-059>065-232000-
...EAST CENTRAL MISSOURI...
  
CITY           SKY/WX    TMP DP  RH WIND       PRES   REMARKS
ST LOUIS INTL  PTSUNNY   63  52  67 W6        30.06S                  
SPIRIT OF STL  CLOUDY    64  52  64 VRB3      30.05S                  
ST CHARLES     PTSUNNY   63  51  65 MISG      30.05F                  
                   
$$
MOZ072>076-082>087-097>100-106>115-232000-
...SOUTH CENTRAL AND SOUTHEAST MISSOURI...
  
CITY           SKY/WX    TMP DP  RH WIND       PRES   REMARKS
CAPE GIRARDEAU FAIR      78  62  57 SW8       29.99F                  
FARMINGTON     CLOUDY    73  61  65 NW6       30.02F                  
POPLAR BLUFF   FAIR      76  61  59 SW9       30.00F                  
WEST PLAINS    PTSUNNY   76  58  53 MISG      30.01F                  
                                       
$$